| time (UTC) | temp F | wind direction | speed MPH | gust MPH | rain 1hr in | rain 24hr in | rain mn in | humidity % | barometer mb |
| 20260505003725 | 64 | 225 | 0.0 | 0.0 | 0.00 | 0.13 | 0.10 | 50 | 1009.9 |
| 20260505003230 | 64 | 225 | 0.0 | 0.0 | 0.00 | 0.13 | 0.10 | 49 | 1009.8 |
| 20260505002726 | 65 | 225 | 0.0 | 2.0 | 0.00 | 0.13 | 0.10 | 48 | 1009.8 |
| 20260505002225 | 65 | 241 | 0.0 | 0.0 | 0.00 | 0.13 | 0.10 | 47 | 1009.9 |
| 20260505001725 | 65 | 241 | 0.0 | 0.0 | 0.00 | 0.13 | 0.10 | 47 | 1009.8 |
| 20260505001225 | 65 | 241 | 0.0 | 3.0 | 0.00 | 0.13 | 0.10 | 46 | 1009.8 |
| 20260505000725 | 65 | 261 | 0.0 | 3.0 | 0.00 | 0.13 | 0.10 | 45 | 1009.7 |
| 20260505000226 | 66 | 247 | 0.0 | 2.0 | 0.00 | 0.13 | 0.10 | 44 | 1009.8 |
| 20260504235727 | 66 | 262 | 1.0 | 2.0 | 0.00 | 0.13 | 0.10 | 43 | 1009.7 |
| 20260504235225 | 66 | 281 | 1.0 | 3.0 | 0.00 | 0.13 | 0.10 | 43 | 1009.7 |
| 20260504234732 | 66 | 288 | 2.0 | 4.0 | 0.00 | 0.13 | 0.10 | 43 | 1009.7 |
| 20260504234228 | 67 | 260 | 1.0 | 5.0 | 0.00 | 0.13 | 0.10 | 43 | 1009.7 |
| 20260504233728 | 67 | 285 | 3.0 | 3.0 | 0.00 | 0.13 | 0.10 | 43 | 1009.7 |
| 20260504233226 | 67 | 268 | 0.0 | 3.0 | 0.00 | 0.13 | 0.10 | 43 | 1009.8 |
| 20260504232726 | 68 | 289 | 3.0 | 4.0 | 0.00 | 0.13 | 0.10 | 41 | 1009.7 |
| 20260504232225 | 68 | 303 | 3.0 | 6.0 | 0.00 | 0.13 | 0.10 | 41 | 1009.7 |
| 20260504231225 | 68 | 281 | 5.0 | 7.0 | 0.00 | 0.13 | 0.10 | 40 | 1009.8 |
| 20260504230725 | 68 | 272 | 4.0 | 5.0 | 0.00 | 0.13 | 0.10 | 41 | 1009.7 |
| 20260504230225 | 68 | 267 | 0.0 | 3.0 | 0.00 | 0.13 | 0.10 | 42 | 1009.7 |
| 20260504225727 | 68 | 286 | 2.0 | 6.0 | 0.00 | 0.13 | 0.10 | 42 | 1009.7 |
| 20260504225225 | 68 | 247 | 3.0 | 6.0 | 0.00 | 0.13 | 0.10 | 40 | 1009.7 |
| 20260504224725 | 68 | 289 | 1.0 | 4.0 | 0.00 | 0.13 | 0.10 | 40 | 1009.7 |
| 20260504224225 | 68 | 240 | 2.0 | 5.0 | 0.00 | 0.13 | 0.10 | 40 | 1009.7 |
| 20260504223725 | 68 | 264 | 2.0 | 4.0 | 0.00 | 0.13 | 0.10 | 40 | 1009.6 |
| 20260504223226 | 69 | 257 | 2.0 | 3.0 | 0.00 | 0.13 | 0.10 | 41 | 1009.7 |
| 20260504222727 | 69 | 277 | 2.0 | 7.0 | 0.00 | 0.13 | 0.10 | 38 | 1009.6 |
| 20260504222228 | 70 | 296 | 3.0 | 5.0 | 0.00 | 0.13 | 0.10 | 40 | 1009.6 |
| 20260504221726 | 70 | 270 | 3.0 | 4.0 | 0.00 | 0.13 | 0.10 | 39 | 1009.6 |
| 20260504221225 | 70 | 268 | 2.0 | 5.0 | 0.00 | 0.13 | 0.10 | 40 | 1009.5 |
| 20260504220725 | 70 | 250 | 1.0 | 5.0 | 0.00 | 0.13 | 0.10 | 37 | 1009.6 |
| 20260504220225 | 70 | 272 | 4.0 | 6.0 | 0.00 | 0.13 | 0.10 | 39 | 1009.5 |
| 20260504215725 | 70 | 270 | 3.0 | 6.0 | 0.00 | 0.13 | 0.10 | 38 | 1009.6 |
| 20260504215225 | 70 | 305 | 2.0 | 3.0 | 0.00 | 0.13 | 0.10 | 37 | 1009.6 |
| 20260504214725 | 70 | 289 | 3.0 | 4.0 | 0.00 | 0.13 | 0.10 | 38 | 1009.6 |
| 20260504214225 | 71 | 277 | 2.0 | 8.0 | 0.00 | 0.13 | 0.10 | 39 | 1009.6 |
| 20260504213725 | 70 | 268 | 3.0 | 5.0 | 0.00 | 0.13 | 0.10 | 36 | 1009.6 |
| 20260504213226 | 70 | 282 | 2.0 | 6.0 | 0.00 | 0.13 | 0.10 | 36 | 1009.6 |
| 20260504212731 | 70 | 248 | 6.0 | 6.0 | 0.00 | 0.13 | 0.10 | 34 | 1009.6 |
| 20260504212225 | 71 | 272 | 1.0 | 4.0 | 0.00 | 0.13 | 0.10 | 38 | 1009.6 |
| 20260504211725 | 71 | 267 | 2.0 | 6.0 | 0.00 | 0.13 | 0.10 | 36 | 1009.6 |
| 20260504211225 | 70 | 271 | 3.0 | 5.0 | 0.00 | 0.13 | 0.10 | 36 | 1009.6 |
| 20260504210725 | 70 | 277 | 4.0 | 6.0 | 0.00 | 0.13 | 0.10 | 36 | 1009.7 |
| 20260504210225 | 71 | 299 | 2.0 | 4.0 | 0.00 | 0.13 | 0.10 | 38 | 1009.6 |
| 20260504205725 | 71 | 270 | 3.0 | 5.0 | 0.00 | 0.13 | 0.10 | 37 | 1009.6 |
| 20260504205225 | 70 | 261 | 0.0 | 2.0 | 0.00 | 0.13 | 0.10 | 41 | 1009.7 |
| 20260504204725 | 70 | 258 | 2.0 | 5.0 | 0.00 | 0.13 | 0.10 | 37 | 1009.8 |
| 20260504204225 | 70 | 278 | 3.0 | 5.0 | 0.00 | 0.13 | 0.10 | 39 | 1009.8 |
| 20260504203725 | 70 | 282 | 4.0 | 6.0 | 0.00 | 0.13 | 0.10 | 39 | 1009.8 |
| 20260504203228 | 70 | 253 | 1.0 | 4.0 | 0.00 | 0.13 | 0.10 | 38 | 1009.8 |
| 20260504202725 | 70 | 253 | 1.0 | 6.0 | 0.00 | 0.13 | 0.10 | 36 | 1009.8 |
| 20260504202225 | 70 | 261 | 3.0 | 5.0 | 0.00 | 0.13 | 0.10 | 39 | 1010.0 |
| 20260504201726 | 69 | 277 | 2.0 | 6.0 | 0.00 | 0.13 | 0.10 | 36 | 1010.1 |
| 20260504201225 | 70 | 250 | 3.0 | 6.0 | 0.00 | 0.13 | 0.10 | 39 | 1010.1 |
| 20260504200725 | 70 | 255 | 2.0 | 8.0 | 0.00 | 0.13 | 0.10 | 36 | 1010.1 |
| 20260504200225 | 69 | 250 | 3.0 | 4.0 | 0.00 | 0.13 | 0.10 | 37 | 1010.3 |
| 20260504195726 | 70 | 295 | 3.0 | 5.0 | 0.00 | 0.13 | 0.10 | 36 | 1010.4 |
| 20260504195226 | 70 | 254 | 4.0 | 4.0 | 0.00 | 0.13 | 0.10 | 36 | 1010.5 |
| 20260504194725 | 70 | 270 | 2.0 | 8.0 | 0.00 | 0.13 | 0.10 | 36 | 1010.5 |
| 20260504194225 | 69 | 293 | 1.0 | 4.0 | 0.00 | 0.13 | 0.10 | 40 | 1010.6 |
| 20260504193725 | 69 | 257 | 1.0 | 5.0 | 0.00 | 0.13 | 0.10 | 40 | 1010.7 |
| 20260504192726 | 70 | 254 | 3.0 | 5.0 | 0.00 | 0.13 | 0.10 | 37 | 1010.9 |
| 20260504192225 | 70 | 250 | 2.0 | 5.0 | 0.00 | 0.13 | 0.10 | 41 | 1011.0 |
| 20260504191726 | 70 | 247 | 2.0 | 5.0 | 0.00 | 0.13 | 0.10 | 42 | 1010.9 |
| 20260504191226 | 70 | 254 | 1.0 | 6.0 | 0.00 | 0.13 | 0.10 | 37 | 1011.0 |
| 20260504190725 | 70 | 247 | 2.0 | 5.0 | 0.00 | 0.13 | 0.10 | 33 | 1011.1 |
| 20260504190226 | 70 | 246 | 2.0 | 6.0 | 0.00 | 0.13 | 0.10 | 39 | 1011.2 |
| 20260504185725 | 70 | 257 | 1.0 | 6.0 | 0.00 | 0.13 | 0.10 | 35 | 1011.3 |
| 20260504185226 | 70 | 291 | 2.0 | 4.0 | 0.00 | 0.13 | 0.10 | 37 | 1011.4 |
| 20260504184725 | 70 | 281 | 3.0 | 8.0 | 0.02 | 0.13 | 0.10 | 36 | 1011.5 |
| 20260504184226 | 71 | 296 | 2.0 | 6.0 | 0.03 | 0.13 | 0.10 | 38 | 1011.5 |
| 20260504183726 | 70 | 309 | 6.0 | 8.0 | 0.03 | 0.13 | 0.10 | 34 | 1011.5 |
| 20260504183225 | 70 | 309 | 3.0 | 7.0 | 0.03 | 0.13 | 0.10 | 35 | 1011.5 |
| 20260504182726 | 70 | 275 | 4.0 | 7.0 | 0.03 | 0.13 | 0.10 | 39 | 1011.4 |
| 20260504182226 | 70 | 275 | 3.0 | 7.0 | 0.03 | 0.13 | 0.10 | 33 | 1011.5 |
| 20260504181726 | 70 | 310 | 4.0 | 8.0 | 0.03 | 0.13 | 0.10 | 38 | 1011.5 |
| 20260504181226 | 71 | 261 | 5.0 | 6.0 | 0.03 | 0.13 | 0.10 | 34 | 1011.6 |
| 20260504180726 | 72 | 258 | 1.0 | 6.0 | 0.03 | 0.13 | 0.10 | 34 | 1011.7 |
| 20260504180226 | 72 | 329 | 4.0 | 8.0 | 0.03 | 0.13 | 0.10 | 35 | 1011.8 |
| 20260504175726 | 72 | 253 | 1.0 | 7.0 | 0.03 | 0.13 | 0.10 | 34 | 1011.8 |
| 20260504175226 | 71 | 326 | 4.0 | 4.0 | 0.03 | 0.13 | 0.10 | 34 | 1011.9 |
| 20260504174726 | 72 | 230 | 0.0 | 6.0 | 0.01 | 0.11 | 0.08 | 34 | 1011.9 |
| 20260504174226 | 71 | 206 | 1.0 | 5.0 | 0.00 | 0.10 | 0.07 | 35 | 1012.0 |
| 20260504173726 | 71 | 334 | 4.0 | 8.0 | 0.00 | 0.10 | 0.07 | 32 | 1012.1 |
| 20260504173226 | 71 | 300 | 5.0 | 7.0 | 0.00 | 0.10 | 0.07 | 33 | 1012.2 |
| 20260504172727 | 71 | 253 | 3.0 | 6.0 | 0.00 | 0.10 | 0.07 | 32 | 1012.2 |
| 20260504172226 | 71 | 209 | 0.0 | 9.0 | 0.00 | 0.10 | 0.07 | 31 | 1012.3 |
| 20260504171728 | 71 | 322 | 0.0 | 6.0 | 0.00 | 0.10 | 0.07 | 36 | 1012.3 |
| 20260504171227 | 70 | 322 | 1.0 | 8.0 | 0.00 | 0.10 | 0.07 | 33 | 1012.3 |
| 20260504170726 | 69 | 312 | 7.0 | 9.0 | 0.00 | 0.10 | 0.07 | 34 | 1012.2 |
| 20260504170226 | 69 | 288 | 1.0 | 7.0 | 0.00 | 0.10 | 0.07 | 34 | 1012.5 |
| 20260504160226 | 67 | 267 | 0.0 | 4.0 | 0.00 | 0.11 | 0.07 | 36 | 1013.3 |
| 20260504150226 | 65 | 282 | 1.0 | 4.0 | 0.00 | 0.11 | 0.07 | 43 | 1013.8 |
| 20260504141227 | 60 | 316 | 3.0 | 5.0 | 0.00 | 0.11 | 0.07 | 48 | 1014.1 |
| 20260504140726 | 58 | 257 | 3.0 | 4.0 | 0.00 | 0.11 | 0.07 | 48 | 1014.1 |
| 20260504140226 | 61 | 267 | 0.0 | 3.0 | 0.00 | 0.11 | 0.07 | 46 | 1014.1 |
| 20260504130727 | 58 | 320 | 0.0 | 3.0 | 0.00 | 0.11 | 0.07 | 56 | 1014.4 |
| 20260504130226 | 58 | 336 | 3.0 | 5.0 | 0.00 | 0.11 | 0.07 | 53 | 1014.4 |
| 20260504120226 | 53 | 264 | 0.0 | 0.0 | 0.00 | 0.11 | 0.07 | 67 | 1014.7 |
| 20260504110226 | 47 | 322 | 0.0 | 0.0 | 0.01 | 0.10 | 0.06 | 74 | 1015.1 |
| 20260504100414 | 46 | 322 | 0.0 | 0.0 | 0.00 | 0.09 | 0.05 | 73 | 1015.1 |
| 20260504100226 | 46 | 322 | 0.0 | 0.0 | 0.00 | 0.09 | 0.05 | 73 | 1015.1 |
| 20260504081736 | 49 | 310 | 0.0 | 0.0 | 0.00 | 0.09 | 0.05 | 57 | 1015.4 |
| 20260504081226 | 49 | 310 | 0.0 | 0.0 | 0.00 | 0.09 | 0.05 | 58 | 1015.4 |
| 20260504080726 | 49 | 310 | 0.0 | 0.0 | 0.00 | 0.09 | 0.05 | 58 | 1015.3 |
| 20260504080227 | 49 | 310 | 0.0 | 0.0 | 0.00 | 0.09 | 0.05 | 58 | 1015.3 |
| 20260504070230 | 48 | 322 | 4.0 | 4.0 | 0.00 | 0.09 | 0.05 | 57 | 1015.2 |
| 20260504060227 | 45 | 327 | 0.0 | 0.0 | 0.01 | 0.09 | 0.05 | 68 | 1015.5 |
| 20260504050727 | 43 | 327 | 0.0 | 0.0 | 0.05 | 0.09 | 0.05 | 77 | 1015.5 |
| 20260504050227 | 44 | 327 | 0.0 | 0.0 | 0.04 | 0.08 | 0.04 | 76 | 1015.4 |
| 20260504045727 | 43 | 327 | 0.0 | 0.0 | 0.04 | 0.08 | 0.04 | 75 | 1015.6 |
| 20260504045227 | 44 | 327 | 0.0 | 0.0 | 0.03 | 0.07 | 0.03 | 74 | 1015.6 |
| 20260504045014 | 44 | 327 | 0.0 | 0.0 | 0.03 | 0.07 | 0.03 | 73 | 1015.5 |
| 20260504044728 | 44 | 327 | 0.0 | 0.0 | 0.03 | 0.07 | 0.03 | 73 | 1015.6 |
| 20260504044227 | 44 | 327 | 0.0 | 0.0 | 0.03 | 0.07 | 0.03 | 73 | 1015.5 |
| 20260504043728 | 44 | 327 | 0.0 | 0.0 | 0.02 | 0.06 | 0.02 | 71 | 1015.5 |
| 20260504043227 | 45 | 327 | 0.0 | 0.0 | 0.01 | 0.05 | 0.01 | 70 | 1015.5 |
| 20260504042728 | 45 | 327 | 0.0 | 0.0 | 0.00 | 0.04 | 0.00 | 70 | 1015.5 |
| 20260504042227 | 45 | 327 | 0.0 | 0.0 | 0.01 | 0.04 | 0.00 | 67 | 1015.4 |
| 20260504041727 | 45 | 327 | 0.0 | 0.0 | 0.03 | 0.04 | 0.00 | 68 | 1015.3 |
| 20260504041228 | 45 | 327 | 0.0 | 0.0 | 0.03 | 0.04 | 0.00 | 68 | 1015.2 |
| 20260504040727 | 45 | 327 | 0.0 | 0.0 | 0.03 | 0.04 | 0.00 | 68 | 1015.0 |
| 20260504040227 | 45 | 327 | 0.0 | 0.0 | 0.03 | 0.04 | 0.00 | 68 | 1015.2 |
| 20260504035729 | 45 | 327 | 0.0 | 0.0 | 0.03 | 0.04 | 0.00 | 70 | 1015.2 |
| 20260504035227 | 45 | 327 | 0.0 | 0.0 | 0.03 | 0.04 | 0.00 | 69 | 1015.2 |
| 20260504034728 | 45 | 327 | 0.0 | 0.0 | 0.03 | 0.04 | 0.05 | 67 | 1015.2 |
| 20260504034227 | 45 | 327 | 0.0 | 0.0 | 0.03 | 0.04 | 0.05 | 67 | 1015.1 |
| 20260504033727 | 46 | 327 | 0.0 | 0.0 | 0.03 | 0.04 | 0.05 | 68 | 1015.1 |
| 20260504033227 | 46 | 327 | 0.0 | 0.0 | 0.03 | 0.05 | 0.05 | 67 | 1015.0 |
| 20260504032728 | 46 | 327 | 0.0 | 0.0 | 0.03 | 0.05 | 0.05 | 67 | 1015.0 |
| 20260504032227 | 46 | 327 | 0.0 | 0.0 | 0.01 | 0.03 | 0.03 | 68 | 1015.0 |
| 20260504031727 | 46 | 327 | 0.0 | 0.0 | 0.00 | 0.02 | 0.02 | 68 | 1014.9 |
| 20260504031227 | 46 | 327 | 0.0 | 0.0 | 0.00 | 0.02 | 0.02 | 68 | 1014.9 |
| 20260504030727 | 46 | 327 | 0.0 | 0.0 | 0.00 | 0.02 | 0.02 | 68 | 1014.9 |
| 20260504030227 | 47 | 327 | 0.0 | 0.0 | 0.00 | 0.02 | 0.02 | 64 | 1014.9 |
| 20260504025727 | 47 | 327 | 0.0 | 0.0 | 0.00 | 0.02 | 0.02 | 64 | 1014.9 |
| 20260504025227 | 47 | 327 | 0.0 | 0.0 | 0.00 | 0.02 | 0.02 | 62 | 1014.9 |
| 20260504024227 | 47 | 327 | 0.0 | 0.0 | 0.00 | 0.02 | 0.02 | 63 | 1014.9 |
| 20260504023727 | 47 | 327 | 0.0 | 0.0 | 0.00 | 0.02 | 0.02 | 63 | 1014.8 |
| 20260504023230 | 47 | 327 | 0.0 | 0.0 | 0.00 | 0.08 | 0.02 | 63 | 1014.8 |
| 20260504022727 | 47 | 327 | 0.0 | 0.0 | 0.00 | 0.08 | 0.02 | 61 | 1014.8 |
| 20260504022227 | 48 | 327 | 0.0 | 0.0 | 0.00 | 0.08 | 0.02 | 61 | 1014.8 |
| 20260504021727 | 47 | 327 | 0.0 | 0.0 | 0.00 | 0.08 | 0.02 | 61 | 1014.8 |
| 20260504021227 | 48 | 327 | 0.0 | 0.0 | 0.00 | 0.08 | 0.02 | 60 | 1014.7 |
| 20260504020727 | 47 | 327 | 0.0 | 0.0 | 0.00 | 0.08 | 0.02 | 62 | 1014.8 |
| 20260504020228 | 48 | 327 | 0.0 | 0.0 | 0.00 | 0.08 | 0.02 | 61 | 1014.8 |
| 20260504015727 | 49 | 327 | 0.0 | 0.0 | 0.00 | 0.08 | 0.02 | 59 | 1014.8 |
| 20260504015227 | 49 | 327 | 0.0 | 0.0 | 0.00 | 0.08 | 0.02 | 57 | 1014.8 |
| 20260504014727 | 49 | 327 | 0.0 | 0.0 | 0.00 | 0.08 | 0.02 | 56 | 1014.8 |
| 20260504014229 | 49 | 327 | 0.0 | 0.0 | 0.00 | 0.08 | 0.02 | 55 | 1014.7 |
| 20260504013727 | 50 | 327 | 0.0 | 0.0 | 0.00 | 0.08 | 0.02 | 54 | 1014.7 |
| 20260504013227 | 50 | 327 | 0.0 | 0.0 | 0.00 | 0.11 | 0.02 | 54 | 1014.7 |
| 20260504012728 | 50 | 327 | 0.0 | 0.0 | 0.00 | 0.11 | 0.02 | 53 | 1014.7 |
| 20260504011728 | 51 | 327 | 0.0 | 0.0 | 0.00 | 0.11 | 0.02 | 50 | 1014.5 |
| 20260504011228 | 51 | 327 | 0.0 | 0.0 | 0.00 | 0.11 | 0.02 | 49 | 1014.5 |
| 20260504010727 | 52 | 327 | 0.0 | 0.0 | 0.00 | 0.11 | 0.02 | 50 | 1014.5 |
| 20260504010227 | 52 | 327 | 0.0 | 0.0 | 0.00 | 0.11 | 0.02 | 49 | 1014.4 |
| 20260504005727 | 52 | 327 | 0.0 | 0.0 | 0.00 | 0.11 | 0.02 | 49 | 1014.4 |
| 20260504005228 | 52 | 327 | 0.0 | 0.0 | 0.00 | 0.11 | 0.02 | 49 | 1014.4 |
| 20260504004727 | 53 | 327 | 0.0 | 0.0 | 0.00 | 0.11 | 0.02 | 48 | 1014.3 |
| 20260504004227 | 54 | 327 | 0.0 | 0.0 | 0.00 | 0.11 | 0.02 | 47 | 1014.3 |